This is the latest recevied weather packets stored in our database for station/object KI4BSX. If no packets are shown the sender has not sent any weather packets the latest 10 day(s).
| Time | Temp. | Humidity | Pressure | Rain* | Wind** | Luminosity | Snow |
|---|---|---|---|---|---|---|---|
| 1777850110 | 21.67° C | 37% | 1018.4 hPa | 0 mm | - | - | - |
| 1777849806 | 21.67° C | 37% | 1018.5 hPa | 0 mm | - | - | - |
| 1777849503 | 21.67° C | 37% | 1018.5 hPa | 0 mm | - | - | - |
| 1777849201 | 21.67° C | 38% | 1018.3 hPa | 0 mm | - | - | - |
| 1777848897 | 21.67° C | 36% | 1018.6 hPa | 0 mm | - | - | - |
| 1777848592 | 21.67° C | 36% | 1018.5 hPa | 0 mm | - | - | - |
| 1777848290 | 22.22° C | 39% | 1018.7 hPa | 0 mm | - | - | - |
| 1777847988 | 22.22° C | 38% | 1018.6 hPa | 0 mm | - | - | - |
| 1777847685 | 21.67° C | 36% | 1018.6 hPa | 0 mm | - | - | - |
| 1777847381 | 22.78° C | 36% | 1018.6 hPa | 0 mm | - | - | - |
| 1777847079 | 22.22° C | 35% | 1018.6 hPa | 0 mm | - | - | - |
| 1777846777 | 22.78° C | 36% | 1018.5 hPa | 0 mm | - | - | - |
| 1777846475 | 22.22° C | 35% | 1018.4 hPa | 0 mm | - | - | - |
| 1777846172 | 22.22° C | 34% | 1018.5 hPa | 0 mm | - | - | - |
| 1777845868 | 22.22° C | 34% | 1018.7 hPa | 0 mm | - | - | - |
| 1777845565 | 22.22° C | 33% | 1018.7 hPa | 0 mm | - | - | - |
| 1777845262 | 22.78° C | 33% | 1018.7 hPa | 0 mm | - | - | - |
| 1777844960 | 22.78° C | 33% | 1018.8 hPa | 0 mm | - | - | - |
| 1777844657 | 22.78° C | 32% | 1018.9 hPa | 0 mm | - | - | - |
| 1777844355 | 22.22° C | 32% | 1018.9 hPa | 0 mm | - | - | - |
| 1777844052 | 22.22° C | 32% | 1018.8 hPa | 0 mm | - | - | - |
| 1777843749 | 21.67° C | 32% | 1018.9 hPa | 0 mm | - | - | - |
| 1777843446 | 22.78° C | 32% | 1018.9 hPa | 0 mm | - | - | - |
| 1777843144 | 22.22° C | 33% | 1018.9 hPa | 0 mm | - | - | - |
| 1777842840 | 21.67° C | 33% | 1019 hPa | 0 mm | - | - | - |
* Rain latest hour (hover to see other rain measurements)
** Current wind speed in m/s (hover to see current wind gust speed)